Location: Seattle
(47.6064°N, 122.3308°W)
Time: 00:01:07
(UTC-07:00)

S-56A Canister/Altair - Pass Details

Date: 02 August 2021
Orbit: 632 x 2500 km, 38.9° (Epoch: 23 September)

Event Time Altitude Azimuth Distance (km) Brightness Sun altitude
Rises 21:33:55 0° 282° (WNW) 6,175 13.5 -8.3°
Reaches altitude 10° 21:38:43 10° 273° (W) 5,159 12.6 -8.9°
Maximum altitude 21:50:22 29° 221° (SW) 3,523 10.9 -10.4°
Drops below altitude 10° 22:00:15 10° 168° (SSE) 4,313 10.9 -11.7°
Enters shadow 22:01:29 - 164° (SSE) 4,546 10.9 -11.8°
